Regional Weather Roundup
Issued by NWS

Home | Current Version | Previous Version | Graphics & Text | Print | Product List | Glossary On
Versions: 1 2 3 4 5 6 7 8 9 10 11 12 13 14 15 16 17 18 19 20 21 22 23 24 25 26 27 28 29 30 31 32 33 34 35 36 37 38 39 40 41 42 43 44 45 46 47 48 49 50
000
ASUS45 KABQ 240210
RWRNM
NEW MEXICO REGIONAL WEATHER ROUNDUP
NATIONAL WEATHER SERVICE ALBUQUERQUE NM
800 PM MDT SAT SEP 23 2017

NOTE: "FAIR" MEANS FEW OR NO CLOUDS BELOW 12,000 FEET AGL WITH NO
       SIGNIFICANT WEATHER OR OBSTRUCTIONS TO VISION.

      THIS PRODUCT IS RELEASED AS TWO VERSIONS.  ONE VERSION NEAR
      THE TOP OF THE HOUR CONTAINING PRELIMINARY DATA FROM ALBUQUERQUE
      AND OTHER STATIONS.  A FINAL VERSION WITH ADDITIONAL DATA IS
      ISSUED ABOUT 10 MINUTES AFTER THE HOUR.

NMZ501-503-504-510>518-240300-
NORTHWEST PLATEAU/NORTHCENTRAL MOUNTAINS

CITY           SKY/WX    TMP DP  RH WIND       PRES   REMARKS
FARMINGTON     FAIR      57  47  69 E16G23    29.82R
LOS ALAMOS     MOCLDY    53  47  82 NW3       29.95R
SANTA FE       LGT RAIN  57  52  83 CALM      29.90S
TAOS           LGT RAIN  53  49  86 S7        30.00R
ANGEL FIRE     LGT RAIN  47  46  94 CALM      30.04S

$$
NMZ402-403-502-505>509-240300-
WESTCENTRAL MOUNTAINS/SOUTHWEST MOUNTAINS

CITY           SKY/WX    TMP DP  RH WIND       PRES   REMARKS
GALLUP         FAIR      59  21  23 SW14      29.90R
GRANTS         FAIR      58  29  33 W9        29.92R
SILVER CITY    FAIR      70  38  30 W8        29.87R

$$
NMZ407-409-411-412-240300-
SOUTHERN DESERTS

CITY           SKY/WX    TMP DP  RH WIND       PRES   REMARKS
DEMING         FAIR      77  44  30 W15       29.79R
LAS CRUCES     FAIR      79  37  21 W10       29.80R
HOLLOMAN AFB   MOCLDY    80  56  44 SE9       29.76R
ALAMOGORDO     MOCLDY    79  52  38 S7        29.76R
T OR C         FAIR      78  38  23 SW22G30   29.78R

$$
NMZ519>523-240300-
CENTRAL VALLEYS/CENTRAL HIGHLANDS

CITY           SKY/WX    TMP DP  RH WIND       PRES   REMARKS
ALBUQUERQUE    MOCLDY    69  45  41 E5        29.83R
DOUBLE EAGLE   MOCLDY    63  48  59 VRB6      29.86R
MORIARTY ARPT  FAIR      68  51  54 SE20G25   29.88S
CLINES CORNERS CLOUDY    58  54  86 SE15G28   29.96R
BELEN          FAIR      73  35  25 SW15      29.81R
SOCORRO        FAIR      75  36  23 S8        29.78R

$$
NMZ524>526-539-540-240300-
SOUTHCENTRAL MOUNTAINS

CITY           SKY/WX    TMP DP  RH WIND       PRES   REMARKS
RUIDOSO        CLOUDY    63  59  88 SE10      29.99R

$$
NMZ527>531-240300-
NORTHEAST HIGHLANDS/NORTHEAST PLAINS

CITY           SKY/WX    TMP DP  RH WIND       PRES   REMARKS
LAS VEGAS      CLOUDY    56  54  93 S21G30    29.94R
RATON          NOT AVBL
CLAYTON        CLOUDY    59  59 100 S17       29.89F

$$
NMZ532>537-240300-
EASTCENTRAL PLAINS

CITY           SKY/WX    TMP DP  RH WIND       PRES   REMARKS
SANTA ROSA     CLOUDY    63  61  92 SE18G29   29.86R
TUCUMCARI      FAIR      65  64  97 E5        29.83F
CANNON AFB     CLOUDY    66  66 100 SE6       29.87S
CLOVIS AIRPORT CLOUDY    65  63  93 SE12      29.86F

$$
NMZ028-029-538-240300-
SOUTHEAST PLAINS

CITY           SKY/WX    TMP DP  RH WIND       PRES   REMARKS
ROSWELL        FAIR      68  67  96 NE7       29.81S
ARTESIA        FAIR      70  70 100 N5        29.80R
CARLSBAD       LGT RAIN  69  69 100 SE16G23   29.78R
HOBBS          MOCLDY    77  61  57 S18G28    29.82S


$$



USA.gov is the U.S. government's official web portal to all federal, state and local government web resources and services.